Location: Unspecified
(29.9680°N, 0.0000°E)
Time: 20:35:42
(UTC+00:00)

Tiros 1 despin weight - All Passes

Search period start: 24 June 2019 00:00
Search period end: 04 July 2019 00:00
Orbit: 595 x 642 km, 48.2° (Epoch: 24 June)

Date Brightness Start Highest point End Pass type
(mag) Time Alt. Az. Time Alt. Az. Time Alt. Az.
24 Jun - 03:44:54 10° NNW 03:48:15 21° NNE 03:51:37 10° ENE visible
24 Jun - 05:25:42 10° NW 05:30:05 65° SW 05:34:29 10° SE daylight
24 Jun - 19:30:50 10° SSE 19:32:48 13° SE 19:34:46 10° ESE visible
24 Jun - 21:09:24 10° SW 21:13:55 77° NW 21:18:23 10° NE visible
24 Jun - 22:53:17 10° WNW 22:56:00 16° NNW 22:58:42 10° NNE visible
25 Jun - 02:21:59 10° N 02:22:36 10° NNE 02:23:13 10° NNE visible
25 Jun - 04:01:02 10° NNW 04:05:08 37° NE 04:09:16 10° ESE visible
25 Jun - 05:42:47 10° WNW 05:46:33 28° SW 05:50:20 10° S daylight
25 Jun - 19:45:15 10° SSW 19:49:11 29° SE 19:53:04 10° ENE visible
25 Jun - 21:26:26 10° WSW 21:30:38 37° NW 21:34:46 10° NNE visible
25 Jun - 23:12:33 10° NNW 23:13:10 10° NNW 23:13:48 10° N visible
26 Jun - 02:37:04 10° NNW 02:39:47 16° NNE 02:42:29 10° ENE visible
26 Jun - 04:17:25 10° NW 04:21:51 79° NE 04:26:17 10° SE visible
26 Jun - 06:01:19 10° WSW 06:02:55 12° SW 06:04:31 10° SSW daylight
26 Jun - 20:01:09 10° SW 20:05:40 67° SE 20:10:07 10° NE visible
26 Jun - 21:44:06 10° WNW 21:47:30 21° NNW 21:50:54 10° NNE visible
27 Jun - 02:53:01 10° NNW 02:56:46 26° NNE 03:00:29 10° E visible
27 Jun - 04:34:12 10° WNW 04:38:23 44° SW 04:42:37 10° SSE visible
27 Jun - 18:37:53 10° S 18:41:02 18° SE 18:44:10 10° E daylight
27 Jun - 20:17:49 10° WSW 20:22:17 56° NW 20:26:42 10° NE visible
27 Jun - 22:02:27 10° NW 22:04:35 13° NNW 22:06:41 10° N visible
28 Jun - 01:29:25 10° N 01:31:13 12° NNE 01:33:01 10° NE visible
28 Jun - 03:09:16 10° NW 03:13:34 50° NE 03:17:52 10° ESE visible
28 Jun - 04:51:39 10° W 04:54:49 19° SW 04:57:59 10° S daylight
28 Jun - 18:53:09 10° SSW 18:57:27 41° SE 19:01:43 10° ENE daylight
28 Jun - 20:35:08 10° W 20:39:04 28° NNW 20:42:58 10° NNE visible
29 Jun - 01:45:06 10° NNW 01:48:19 19° NNE 01:51:31 10° ENE visible
29 Jun - 03:25:48 10° NW 03:30:12 73° SW 03:34:36 10° SE visible
29 Jun - 17:31:33 10° SE 17:32:56 11° SE 17:34:18 10° ESE daylight
29 Jun - 19:09:25 10° SW 19:14:00 86° NW 19:18:31 10° NE daylight
29 Jun - 20:53:04 10° WNW 20:56:02 17° NNW 20:58:59 10° NNE visible
30 Jun - 02:01:12 10° NNW 02:05:14 34° NE 02:09:15 10° E visible
30 Jun - 03:42:48 10° WNW 03:46:42 31° SW 03:50:36 10° SSE visible
30 Jun - 17:45:28 10° S 17:49:17 26° SE 17:53:04 10° ENE daylight
30 Jun - 19:26:22 10° WSW 19:30:41 41° NW 19:34:58 10° NE visible
30 Jun - 21:11:53 10° NW 21:13:11 11° NNW 21:14:29 10° N visible
01 Jul - 00:37:17 10° N 00:39:48 15° NNE 00:42:19 10° ENE visible
01 Jul - 02:17:33 10° NW 02:21:58 71° NE 02:26:21 10° SE visible
01 Jul - 04:00:55 10° W 04:03:04 13° SW 04:05:13 10° SSW visible
01 Jul - 18:01:14 10° SW 18:05:45 60° SE 18:10:13 10° NE daylight
01 Jul - 19:43:55 10° W 19:47:33 23° NNW 19:51:08 10° NNE visible
02 Jul - 00:53:12 10° NNW 00:56:50 24° NNE 01:00:26 10° E visible
02 Jul - 02:34:16 10° WNW 02:38:32 50° SW 02:42:48 10° SSE night (unlit)
02 Jul - 16:38:14 10° SSE 16:41:09 17° SE 16:44:02 10° E daylight
02 Jul - 18:17:48 10° WSW 18:22:21 63° NW 18:26:51 10° NE daylight
02 Jul - 20:02:08 10° NW 20:04:35 14° NNW 20:07:01 10° N visible
02 Jul - 23:29:41 10° N 23:31:15 12° NNE 23:32:47 10° NE visible
03 Jul - 01:09:25 10° NW 01:13:40 45° NE 01:17:54 10° ESE visible
03 Jul - 02:51:35 10° W 02:54:58 22° SW 02:58:21 10° S night (unlit)
03 Jul - 16:53:17 10° SSW 16:57:33 37° SE 17:01:46 10° ENE daylight
03 Jul - 18:35:01 10° W 18:39:07 31° NW 18:43:11 10° NNE daylight
03 Jul - 23:45:17 10° NNW 23:48:22 18° NNE 23:51:25 10° ENE visible
